Weather History for ENFB - November, 2012

Change the Weather History Date:

Monday, November 19, 2012

  Actual Average Record
Temperature  
Mean Temperature 38 °F -  
Max Temperature 50 °F 35 °F 51 °F (2011)
Min Temperature 25 °F 31 °F 23 °F (2013)
Degree Days  
Heating Degree Days 28    
Moisture  
Dew Point 40 °F    
Average Humidity 84    
Maximum Humidity 93    
Minimum Humidity 66    
Precipitation  
Precipitation 0.12 in - - ()
Sea Level Pressure  
Sea Level Pressure 29.45 in    
Wind  
Wind Speed 24 mph ()    
Max Wind Speed 39 mph    
Max Gust Speed 37 mph    
Visibility 5.6 miles    
Events Rain    
Averages and records for this station are not official NWS values.
T = Trace of Precipitation, MM = Missing Value Source: Averaged Metar Reports

Daily Weather History Graph

Daily Weather History Graph

Search for Another Location

Airport or City:

Trip Planner

Search our weather history database for the weather conditions in past years. The results will help you decide how hot, cold, wet, or windy it might be!

Date:

Astronomy

Nov. 19, 2012 Rise Set
Actual Time 9:09 AM CET 4:05 PM CET
Civil Twilight 8:16 AM CET 4:59 PM CET
Nautical Twilight 7:21 AM CET 5:54 PM CET
Astronomical Twilight 6:30 AM CET 6:45 PM CET
Moon 1:27 PM CET (11/19) 10:59 PM CET (11/19)
Length of Visible Light 8h 42m
Length of Day
6h 55m
Waxing Crescent, 38% of the Moon is Illuminated
Nov 19
Waxing Crescent
Nov 20
First Quarter
Nov 28
Full
Dec 6
Last Quarter
Dec 13
New

Hourly Weather History & Observations

Time (CET) Temp. Windchill Dew Point Humidity Pressure Visibility Wind Dir Wind Speed Gust Speed Precip Events Conditions
12:20 AM 39.2 °F 28.3 °F 35.6 °F 87% 29.56 in 6.2 mi WSW 25.3 mph - N/A Rain Light Rain Showers
12:50 AM 42.8 °F 32.1 °F 35.6 °F 76% 29.56 in 6.2 mi SW 31.1 mph - N/A   Mostly Cloudy
1:00 AM 28 °F - 26 °F 91%  in - NNE 2.2 mph - -  
1:20 AM 42.8 °F 32.1 °F 35.6 °F 76% 29.56 in 6.2 mi SW 31.1 mph - N/A   Mostly Cloudy
1:50 AM 42.8 °F 32.9 °F 35.6 °F 76% 29.56 in 6.2 mi SW 26.5 mph - N/A   Mostly Cloudy
2:20 AM 42.8 °F 33.8 °F 35.6 °F 76% 29.56 in 6.2 mi WSW 21.9 mph - N/A   Mostly Cloudy
2:50 AM 42.8 °F 32.5 °F 33.8 °F 70% 29.59 in 6.2 mi WSW 28.8 mph - N/A   Mostly Cloudy
3:20 AM 42.8 °F 33.8 °F 37.4 °F 81% 29.59 in 6.2 mi SW 21.9 mph - N/A   Partly Cloudy
3:50 AM 42.8 °F 33.8 °F 37.4 °F 81% 29.59 in 6.2 mi West 21.9 mph - N/A   Mostly Cloudy
4:20 AM 42.8 °F 36.2 °F 37.4 °F 81% 29.59 in 6.2 mi WSW 12.7 mph - N/A   Mostly Cloudy
4:50 AM 44.6 °F 35.9 °F 35.6 °F 71% 29.59 in 6.2 mi SW 23.0 mph - N/A   Mostly Cloudy
5:20 AM 42.8 °F 33.8 °F 35.6 °F 76% 29.59 in 6.2 mi SW 21.9 mph - N/A Rain Light Rain Showers
5:50 AM 42.8 °F 33.1 °F 37.4 °F 81% 29.59 in 6.2 mi SW 25.3 mph - N/A   Mostly Cloudy
6:20 AM 44.6 °F 36.1 °F 37.4 °F 76% 29.59 in 6.2 mi SW 21.9 mph - N/A   Partly Cloudy
6:50 AM 44.6 °F 35.9 °F 39.2 °F 81% 29.56 in 6.2 mi SSW 23.0 mph 36.8 mph N/A   Mostly Cloudy
7:00 AM 27 °F - 25 °F 91%  in - Calm Calm - -  
7:20 AM 42.8 °F 33.1 °F 37.4 °F 81% 29.56 in 6.2 mi SW 25.3 mph - N/A Rain Light Rain Showers
7:50 AM 42.8 °F 33.8 °F 35.6 °F 76% 29.56 in 6.2 mi SW 21.9 mph - N/A   Mostly Cloudy
8:20 AM 44.6 °F 36.9 °F 37.4 °F 76% 29.56 in 6.2 mi SSW 18.4 mph - N/A   Mostly Cloudy
8:50 AM 44.6 °F 36.9 °F 39.2 °F 81% 29.56 in 6.2 mi SSW 18.4 mph - N/A   Mostly Cloudy
9:20 AM 46.4 °F 37.9 °F 35.6 °F 66% 29.56 in 6.2 mi SSW 25.3 mph - N/A   Scattered Clouds
9:50 AM 46.4 °F 37.9 °F 35.6 °F 66% 29.56 in 6.2 mi SSW 25.3 mph - N/A   Partly Cloudy
10:20 AM 44.6 °F 35.1 °F 37.4 °F 76% 29.56 in 5.6 mi SSW 27.6 mph - N/A Rain Light Rain
10:50 AM 44.6 °F 34.4 °F 39.2 °F 81% 29.53 in 6.2 mi South 32.2 mph - N/A Rain Light Rain Showers
11:20 AM 44.6 °F 35.1 °F 41.0 °F 87% 29.53 in 6.2 mi SSW 27.6 mph - N/A Rain Light Rain Showers
11:50 AM 44.6 °F 35.3 °F 39.2 °F 81% 29.50 in 6.2 mi SSW 26.5 mph - N/A Rain Light Rain Showers
12:20 PM 46.4 °F 36.7 °F 39.2 °F 76% 29.50 in 6.2 mi South 33.4 mph - N/A   Mostly Cloudy
12:50 PM 46.4 °F 36.4 °F 39.2 °F 76% 29.47 in 6.2 mi SSE 35.7 mph - N/A   Mostly Cloudy
1:00 PM 33 °F - 31 °F 88%  in - North 2.2 mph - -  
1:20 PM 44.6 °F 33.6 °F 39.2 °F 81% 29.47 in 6.2 mi SSE 38.0 mph - N/A Rain Light Rain
1:50 PM 44.6 °F 33.8 °F 39.2 °F 81% 29.44 in 5.0 mi SSE 36.8 mph - N/A Rain Light Rain Showers
2:20 PM 44.6 °F 33.9 °F 41.0 °F 87% 29.42 in 6.2 mi SSE 35.7 mph - N/A Rain Light Rain
2:50 PM 44.6 °F 33.9 °F 41.0 °F 87% 29.42 in 5.6 mi SSE 35.7 mph - N/A Rain Light Rain
3:20 PM 44.6 °F 34.1 °F 41.0 °F 87% 29.39 in 6.2 mi SSE 34.5 mph - N/A Rain Light Rain
3:50 PM 46.4 °F 37.4 °F 42.8 °F 87% 29.36 in 6.2 mi SE 28.8 mph - N/A Rain Light Rain
4:20 PM 46.4 °F 36.1 °F 44.6 °F 93% 29.33 in 5.0 mi SE 38.0 mph - N/A Rain Light Rain
4:50 PM 46.4 °F 36.4 °F 44.6 °F 93% 29.33 in 4.3 mi SSE 35.7 mph - N/A Rain Light Rain
5:20 PM 46.4 °F 36.9 °F 44.6 °F 93% 29.33 in 5.0 mi SSE 32.2 mph - N/A Rain Light Rain
5:50 PM 48.2 °F - 46.4 °F 93% 29.30 in 5.6 mi South 31.1 mph - N/A Rain Light Rain
6:20 PM 48.2 °F - 46.4 °F 93% 29.30 in 3.7 mi South 31.1 mph - N/A Rain Light Rain
6:50 PM 48.2 °F - 46.4 °F 93% 29.27 in 5.0 mi South 32.2 mph - N/A Rain Light Rain
7:00 PM 34 °F - 32 °F 89%  in - SW 2.2 mph - -  
7:20 PM 48.2 °F - 46.4 °F 93% 29.27 in - South 32.2 mph - N/A Rain Light Rain
7:50 PM 48.2 °F - 46.4 °F 93% 29.27 in 2.5 mi South 34.5 mph - N/A Rain Light Rain
8:20 PM 48.2 °F - 46.4 °F 93% 29.27 in - South 35.7 mph - N/A Rain Light Rain
8:50 PM 48.2 °F - 46.4 °F 93% 29.27 in 3.1 mi South 39.1 mph - N/A Rain Light Rain
9:20 PM 48.2 °F - 46.4 °F 93% 29.24 in - SSW 39.1 mph - N/A Rain Light Rain
9:50 PM 48.2 °F - 46.4 °F 93% 29.27 in 3.1 mi SSW 39.1 mph - N/A Rain Light Rain
10:20 PM 48.2 °F - 46.4 °F 93% 29.27 in 3.7 mi SSW 39.1 mph - N/A   Overcast
10:50 PM 48.2 °F - 46.4 °F 93% 29.27 in 3.7 mi SSW 38.0 mph - N/A   Overcast
11:20 PM 50.0 °F - 46.4 °F 87% 29.27 in 3.7 mi SSW 38.0 mph - N/A   Overcast
11:50 PM 50.0 °F - 46.4 °F 87% 29.27 in - SSW 39.1 mph - N/A Rain Light Rain